Location: Unspecified
(36.7727°N, 0.0000°E)
Time: 09:40:00
(UTC+00:00)

Vanguard 2 Rocket - Visible Passes

Search period start: 04 April 2026 00:00
Search period end: 14 April 2026 00:00
Orbit: 554 x 3286 km, 32.9° (Epoch: 29 March)

Date Brightness Start Highest point End Pass type
(mag) Time Alt. Az. Time Alt. Az. Time Alt. Az.
4 Apr 9.0 02:26:01 14° ESE 02:26:01 14° ESE 02:26:56 10° ESE visible
4 Apr 7.8 04:31:22 21° WSW 04:34:01 30° SSW 04:40:53 10° SE visible
5 Apr 7.6 03:30:16 32° SSE 03:30:16 32° SSE 03:35:01 10° SE visible
6 Apr 9.2 02:29:14 11° ESE 02:29:14 11° ESE 02:29:23 10° ESE visible
6 Apr 8.1 04:34:35 16° SW 04:36:51 21° SSW 04:42:08 10° SSE visible
7 Apr 8.1 03:33:36 22° SSE 03:33:36 22° SSE 03:36:52 10° SE visible
7 Apr 8.9 19:47:24 10° S 19:50:28 13° SSE 19:50:38 13° SSE visible
8 Apr 8.5 04:38:01 11° SW 04:39:41 13° SSW 04:42:24 10° S visible
8 Apr 8.8 20:52:40 10° SW 20:55:16 18° SSW 20:55:16 18° SSW visible
9 Apr 8.7 03:37:07 13° S 03:37:07 13° S 03:38:15 10° SSE visible
9 Apr 8.4 19:47:13 10° SSW 19:53:19 21° SSE 19:54:30 20° SE visible
10 Apr 8.2 20:54:16 10° SW 20:59:06 29° SSW 20:59:06 29° SSW visible
11 Apr 8.0 19:48:08 10° SW 19:56:06 30° SSE 19:58:15 25° SE visible
11 Apr 9.2 22:02:31 10° WSW 22:03:37 14° WSW 22:03:37 14° WSW visible
12 Apr 7.7 20:56:09 10° WSW 21:02:44 42° SSW 21:02:44 42° SSW visible
13 Apr 7.8 19:49:31 10° SW 19:58:52 41° SSE 20:01:47 27° ESE visible
13 Apr 8.9 22:04:53 10° WSW 22:07:10 19° WSW 22:07:10 19° WSW visible
